VOZ696 YPPH-YMML

Flight info

Callsign VOZ696
Flight time N/A
Altitude 37000
Route MEMUP Y53 ALAXO
Aircraft B738/M-SAE3DGHIM1RWZ/LB1

Departure

Time N/A
Airport Perth International Airport (YPPH)

Arrival

Time 2026-05-07 10:30
Airport Melbourne Airport (YMML)
Time Latitude Longitude Altitude Speed Heading
2026-05-07 09:46 -37.63782 139.68018 37381 ft 464 kts 101°
2026-05-07 09:47 -37.64209 139.72002 37381 ft 464 kts 101°
2026-05-07 09:47 -37.65069 139.80073 37377 ft 464 kts 101°
2026-05-07 09:48 -37.65925 139.88160 37372 ft 464 kts 101°
2026-05-07 09:48 -37.66776 139.96257 37373 ft 465 kts 101°
2026-05-07 09:49 -37.67617 140.04313 37366 ft 465 kts 101°
2026-05-07 09:49 -37.68458 140.12416 37365 ft 465 kts 101°
2026-05-07 09:50 -37.69295 140.20541 37365 ft 466 kts 101°
2026-05-07 09:50 -37.70121 140.28609 37364 ft 466 kts 101°
2026-05-07 09:51 -37.70949 140.36756 37356 ft 466 kts 101°
2026-05-07 09:51 -37.71770 140.44895 37353 ft 467 kts 101°
2026-05-07 09:52 -37.72581 140.52989 37353 ft 467 kts 101°
2026-05-07 09:52 -37.73393 140.61152 37352 ft 468 kts 101°
2026-05-07 09:53 -37.74200 140.69315 37348 ft 468 kts 101°
2026-05-07 09:53 -37.74998 140.77447 37350 ft 468 kts 101°
2026-05-07 09:54 -37.75520 140.85693 37341 ft 471 kts 96°
2026-05-07 09:54 -37.75799 140.93918 37336 ft 471 kts 96°
2026-05-07 09:55 -37.76078 141.02203 37348 ft 471 kts 96°
2026-05-07 09:55 -37.76387 141.10485 37335 ft 471 kts 96°
2026-05-07 09:56 -37.76708 141.18773 37336 ft 472 kts 96°
2026-05-07 09:56 -37.77025 141.27027 37334 ft 472 kts 96°
2026-05-07 09:57 -37.77334 141.35301 37333 ft 473 kts 96°
2026-05-07 09:57 -37.77639 141.43622 37328 ft 474 kts 96°
2026-05-07 09:58 -37.77938 141.51963 37326 ft 474 kts 96°
2026-05-07 09:58 -37.78232 141.60309 37322 ft 475 kts 96°
2026-05-07 09:59 -37.78520 141.68655 37322 ft 475 kts 96°
2026-05-07 09:59 -37.78800 141.76967 37319 ft 476 kts 96°
2026-05-07 10:00 -37.79078 141.85364 37319 ft 476 kts 96°
2026-05-07 10:00 -37.79348 141.93687 37316 ft 475 kts 96°
2026-05-07 10:01 -37.79612 142.02070 37323 ft 475 kts 96°
2026-05-07 10:01 -37.79869 142.10386 37321 ft 476 kts 96°
2026-05-07 10:02 -37.80123 142.18766 37320 ft 476 kts 96°
2026-05-07 10:02 -37.80371 142.27140 37311 ft 477 kts 96°
2026-05-07 10:03 -37.80615 142.35595 37329 ft 484 kts 96°
2026-05-07 10:03 -37.80848 142.44111 37276 ft 490 kts 95°
2026-05-07 10:03 -37.80965 142.48459 36735 ft 497 kts 95°
2026-05-07 10:04 -37.81080 142.52817 36188 ft 494 kts 95°
2026-05-07 10:04 -37.81191 142.57175 35546 ft 494 kts 95°
2026-05-07 10:04 -37.81302 142.61527 34893 ft 495 kts 95°
2026-05-07 10:04 -37.81411 142.65835 34223 ft 496 kts 96°
2026-05-07 10:05 -37.81521 142.70212 33452 ft 497 kts 95°
2026-05-07 10:05 -37.81629 142.74589 32711 ft 498 kts 95°
2026-05-07 10:05 -37.81735 142.78975 32042 ft 497 kts 95°
2026-05-07 10:05 -37.81838 142.83320 31561 ft 492 kts 95°
2026-05-07 10:06 -37.81937 142.87598 31066 ft 488 kts 95°
2026-05-07 10:06 -37.82035 142.91883 30565 ft 485 kts 95°
2026-05-07 10:06 -37.82132 142.96137 30008 ft 482 kts 95°
2026-05-07 10:06 -37.82226 143.00365 29439 ft 478 kts 95°
2026-05-07 10:07 -37.82317 143.04500 28928 ft 473 kts 95°
2026-05-07 10:07 -37.82408 143.08655 28410 ft 469 kts 95°
2026-05-07 10:07 -37.82495 143.12755 27891 ft 465 kts 95°
2026-05-07 10:07 -37.82581 143.16838 27382 ft 461 kts 95°
2026-05-07 10:08 -37.82665 143.20889 26890 ft 457 kts 95°
2026-05-07 10:08 -37.82747 143.24891 26395 ft 454 kts 95°
2026-05-07 10:08 -37.82826 143.28817 25908 ft 450 kts 96°
2026-05-07 10:08 -37.82904 143.32774 25419 ft 447 kts 96°
2026-05-07 10:09 -37.82980 143.36705 24938 ft 444 kts 96°
2026-05-07 10:09 -37.83054 143.40572 24427 ft 443 kts 96°
2026-05-07 10:09 -37.83127 143.44461 23927 ft 440 kts 96°
2026-05-07 10:09 -37.83199 143.48328 23362 ft 438 kts 96°
2026-05-07 10:10 -37.83268 143.52171 22853 ft 434 kts 96°
2026-05-07 10:10 -37.83335 143.55984 22347 ft 430 kts 96°
2026-05-07 10:10 -37.83400 143.59759 21857 ft 427 kts 96°
2026-05-07 10:10 -37.83464 143.63506 21371 ft 423 kts 96°
2026-05-07 10:11 -37.83526 143.67170 20914 ft 420 kts 96°
2026-05-07 10:11 -37.83587 143.70858 20438 ft 417 kts 96°
2026-05-07 10:11 -37.83646 143.74515 19963 ft 414 kts 96°
2026-05-07 10:11 -37.83705 143.78151 19501 ft 411 kts 96°
2026-05-07 10:12 -37.83761 143.81766 19031 ft 409 kts 96°
2026-05-07 10:12 -37.83816 143.85322 18552 ft 408 kts 96°
2026-05-07 10:12 -37.83871 143.88907 18029 ft 406 kts 96°
2026-05-07 10:12 -37.83923 143.92460 17544 ft 402 kts 96°
2026-05-07 10:13 -37.83973 143.95999 17084 ft 399 kts 96°
2026-05-07 10:13 -37.83935 143.99494 16629 ft 398 kts 90°
2026-05-07 10:13 -37.83614 144.02967 16204 ft 396 kts 85°
2026-05-07 10:13 -37.83176 144.06397 15760 ft 393 kts 84°
2026-05-07 10:14 -37.82724 144.09749 15338 ft 390 kts 84°
2026-05-07 10:14 -37.82422 144.12035 15048 ft 388 kts 84°
2026-05-07 10:14 -37.81858 144.16503 14467 ft 385 kts 85°
2026-05-07 10:14 -37.81589 144.18723 14176 ft 383 kts 85°
2026-05-07 10:15 -37.81067 144.23136 13542 ft 381 kts 85°
2026-05-07 10:15 -37.80679 144.26446 13075 ft 378 kts 85°
2026-05-07 10:15 -37.80296 144.29718 12628 ft 375 kts 85°
2026-05-07 10:15 -37.79914 144.32981 12187 ft 372 kts 85°
2026-05-07 10:16 -37.79663 144.35122 11898 ft 370 kts 85°
2026-05-07 10:16 -37.79165 144.39371 11338 ft 366 kts 85°
2026-05-07 10:16 -37.78911 144.41519 11058 ft 364 kts 85°
2026-05-07 10:16 -37.78538 144.44660 10805 ft 356 kts 85°
2026-05-07 10:17 -37.78167 144.47672 10648 ft 346 kts 85°
2026-05-07 10:17 -37.77787 144.50655 10339 ft 341 kts 84°
2026-05-07 10:17 -37.77410 144.53586 10162 ft 333 kts 84°
2026-05-07 10:17 -37.77042 144.56443 9984 ft 324 kts 84°
2026-05-07 10:18 -37.76686 144.59210 9956 ft 311 kts 85°
2026-05-07 10:18 -37.76346 144.61869 9461 ft 316 kts 84°
2026-05-07 10:18 -37.75997 144.64620 9089 ft 316 kts 84°
2026-05-07 10:18 -37.75650 144.67350 8754 ft 314 kts 84°
2026-05-07 10:19 -37.75297 144.70081 8443 ft 313 kts 84°
2026-05-07 10:19 -37.74947 144.72796 8135 ft 310 kts 83°
2026-05-07 10:19 -37.74603 144.75446 7819 ft 302 kts 84°
2026-05-07 10:19 -37.74268 144.78027 7534 ft 293 kts 83°
2026-05-07 10:20 -37.73953 144.80514 7246 ft 285 kts 84°
2026-05-07 10:20 -37.73651 144.82967 6961 ft 278 kts 84°
2026-05-07 10:20 -37.73360 144.85344 6693 ft 271 kts 83°
2026-05-07 10:20 -37.73073 144.87668 6443 ft 264 kts 83°
2026-05-07 10:21 -37.72792 144.89931 6201 ft 257 kts 84°
2026-05-07 10:21 -37.72522 144.92106 6036 ft 248 kts 84°
2026-05-07 10:21 -37.72035 144.94178 5947 ft 251 kts 57°
2026-05-07 10:21 -37.70772 144.95704 5794 ft 255 kts 21°
2026-05-07 10:22 -37.69073 144.96168 5594 ft 248 kts 353°
2026-05-07 10:22 -37.67371 144.96080 5468 ft 240 kts 348°
2026-05-07 10:22 -37.65749 144.95937 5354 ft 231 kts 348°
2026-05-07 10:22 -37.64200 144.95802 5252 ft 215 kts 348°
2026-05-07 10:23 -37.62725 144.95673 5197 ft 210 kts 347°
2026-05-07 10:23 -37.61256 144.95550 5118 ft 214 kts 348°
2026-05-07 10:23 -37.59753 144.95429 4896 ft 217 kts 348°
2026-05-07 10:23 -37.58257 144.95316 4657 ft 212 kts 348°
2026-05-07 10:24 -37.56848 144.95083 4395 ft 194 kts 334°
2026-05-07 10:24 -37.55689 144.94450 4177 ft 171 kts 314°
2026-05-07 10:24 -37.54860 144.93528 4007 ft 154 kts 299°
2026-05-07 10:24 -37.54230 144.92455 3817 ft 150 kts 291°
2026-05-07 10:25 -37.53781 144.91298 3661 ft 144 kts 281°
2026-05-07 10:25 -37.53535 144.90112 3495 ft 134 kts 271°
2026-05-07 10:25 -37.53474 144.88931 3307 ft 136 kts 263°
2026-05-07 10:25 -37.53588 144.87784 3138 ft 129 kts 254°
2026-05-07 10:26 -37.53882 144.86692 2757 ft 130 kts 244°
2026-05-07 10:26 -37.54300 144.85688 2632 ft 131 kts 239°
2026-05-07 10:26 -37.54862 144.84741 2533 ft 135 kts 230°
2026-05-07 10:26 -37.55545 144.83922 2395 ft 135 kts 223°
2026-05-07 10:27 -37.56324 144.83261 2264 ft 137 kts 215°
2026-05-07 10:27 -37.57217 144.82757 2087 ft 144 kts 204°
2026-05-07 10:27 -37.58188 144.82455 1912 ft 146 kts 195°
2026-05-07 10:27 -37.59219 144.82372 1614 ft 150 kts 180°
2026-05-07 10:28 -37.60201 144.82609 1563 ft 137 kts 180°
2026-05-07 10:28 -37.61173 144.82755 1421 ft 147 kts 180°
2026-05-07 10:28 -37.62216 144.82919 1218 ft 153 kts 178°
2026-05-07 10:28 -37.63251 144.83121 949 ft 147 kts 176°
2026-05-07 10:29 -37.64303 144.83306 724 ft 157 kts 179°
2026-05-07 10:29 -37.65354 144.83502 491 ft 151 kts 178°
2026-05-07 10:29 -37.66334 144.83677 411 ft 128 kts 172°
2026-05-07 10:30 -37.67154 144.83977 380 ft 12 kts 142°
2026-05-07 10:30 -37.67211 144.84056 378 ft 12 kts 117°
2026-05-07 10:30 -37.67219 144.84161 378 ft 12 kts 84°
2026-05-07 10:30 -37.67210 144.84279 381 ft 14 kts 84°
2026-05-07 10:31 -37.67199 144.84396 383 ft 13 kts 78°
2026-05-07 10:31 -37.67133 144.84454 385 ft 13 kts 352°
2026-05-07 10:31 -37.67046 144.84448 387 ft 12 kts 22°
2026-05-07 10:31 -37.67014 144.84542 389 ft 12 kts 85°
2026-05-07 10:32 -37.67004 144.84648 391 ft 12 kts 84°
2026-05-07 10:32 -37.67025 144.84717 392 ft 1 kts 156°
2026-05-07 10:32 -37.67034 144.84719 391 ft 2 kts 163°
2026-05-07 10:32 -37.67052 144.84722 391 ft 3 kts 172°
2026-05-07 10:33 -37.67058 144.84724 391 ft 0 kts 172°